Date String (YYYY-MM-DD hh:mm:ss) UTC,Instrument flags,absolute air pressure of the measurement (hPa),sample flow rate (lpm),inlet stack bypass flow (lpm),air temperature of the measurement (°C),ambient temperature measured by the external sensor (°C),aerosol sample conditioner tube jacket temperature (°C),OPC LED temperature (°C),internal box temperature (°C),relative humidity of the measurement (%),span deviation,mass concentration of particles derived from Lorenz-Mie calculation of OPC scattering (μg/m³),mass concentration of particles derived from Lorenz-Mie calculation of OPC scattering (μg/m³),mass concentration of particles derived from Lorenz-Mie calculation of OPC scattering (μg/m³)
DateTimeUTC,F1_M11,P_M11,Q1_M11,Q2_M11,T1_M11,T2_M11,T3_M11,T4_M11,T5_M11,U1_M11,ZSPAN_M11,X0_M11,X2_M11,X1_M11
2024-02-14 21:00:00,SystemResetWarning,0824.6,5.00,000.00,020.9,020.5,000.0,029.0,022.7,13.2,0000.0,0001.36,0000.64,0000.42
2024-02-14 21:01:00,SystemResetWarning,0824.6,5.00,000.00,020.9,020.5,000.0,029.0,022.7,13.2,0000.0,0001.30,0000.63,0000.42
2024-02-14 21:02:00,SystemResetWarning,0824.7,5.00,000.00,020.9,020.6,000.0,029.1,022.7,13.4,0000.0,0001.26,0000.62,0000.42
2024-02-14 21:03:00,SystemResetWarning,0824.7,4.99,000.00,020.9,020.6,000.0,029.1,022.7,13.9,0000.0,0001.27,0000.62,0000.42
2024-02-14 21:04:00,SystemResetWarning,0824.7,4.99,000.00,020.9,020.6,000.0,029.1,022.8,14.1,0000.0,0001.38,0000.64,0000.42
2024-02-14 21:05:00,SystemResetWarning,0824.5,5.00,000.00,021.0,020.6,000.0,029.1,022.8,14.3,0000.0,0001.37,0000.63,0000.42
2024-02-14 21:06:00,SystemResetWarning,0824.5,5.00,000.00,021.0,020.6,000.0,029.1,022.8,15.2,0000.0,0001.36,0000.63,0000.42
2024-02-14 21:07:00,SystemResetWarning,0824.5,5.00,000.00,021.0,020.7,000.0,029.1,022.8,14.7,0000.0,0001.24,0000.61,0000.42
2024-02-14 21:08:00,SystemResetWarning,0824.4,5.01,000.00,021.0,020.7,000.0,029.2,022.8,15.3,0000.0,0001.02,0000.58,0000.42
2024-02-14 21:09:00,SystemResetWarning,0824.5,5.00,000.00,021.0,020.7,000.0,029.2,022.8,15.2,0000.0,0001.02,0000.60,0000.43
2024-02-14 21:10:00,SystemResetWarning,0824.6,5.00,000.00,021.1,020.7,000.0,029.2,022.9,15.1,0000.0,0001.17,0000.64,0000.42
2024-02-14 21:11:00,SystemResetWarning,0824.7,5.00,000.00,021.1,020.7,000.0,029.2,022.9,15.4,0000.0,0001.15,0000.63,0000.41
2024-02-14 21:12:00,SystemResetWarning,0824.7,5.00,000.00,021.1,020.7,000.0,029.2,022.9,15.1,0000.0,0001.72,0000.69,0000.45
2024-02-14 21:13:00,SystemResetWarning,0824.7,5.00,000.00,021.1,020.7,000.0,029.3,022.9,14.8,0000.0,0002.84,0001.07,0000.77
2024-02-14 21:14:00,SystemResetWarning,0824.7,5.00,000.00,021.1,020.7,000.0,029.3,022.9,14.5,0000.0,0003.12,0001.27,0000.94
2024-02-14 21:15:00,SystemResetWarning,0824.5,5.00,000.00,021.1,020.7,000.0,029.3,023.0,14.3,0000.0,0003.83,0001.68,0001.29
2024-02-14 21:16:00,SystemResetWarning,0824.4,5.00,000.00,021.2,020.8,000.0,029.3,023.0,14.3,0000.0,0004.36,0002.18,0001.72
2024-02-14 21:17:00,SystemResetWarning,0824.3,5.00,000.00,021.2,020.8,000.0,029.3,023.0,14.4,0000.0,0004.97,0002.62,0002.13
2024-02-14 21:18:00,SystemResetWarning,0824.4,5.00,000.00,021.2,020.8,000.0,029.3,023.0,14.4,0000.0,0005.52,0003.04,0002.52
2024-02-14 21:19:00,SystemResetWarning,0824.3,5.00,000.00,021.2,020.8,000.0,029.4,023.0,14.3,0000.0,0006.02,0003.31,0002.93
2024-02-14 21:20:00,SystemResetWarning,0824.3,5.00,000.00,021.2,020.8,000.0,029.4,023.0,14.1,0000.0,0006.39,0003.51,0003.20
2024-02-14 21:21:00,SystemResetWarning,0824.4,5.00,000.00,021.2,020.8,000.0,029.4,023.0,14.0,0000.0,0006.61,0003.66,0003.36
2024-02-14 21:22:00,SystemResetWarning,0824.4,5.00,000.00,021.2,020.8,000.0,029.4,023.0,14.3,0000.0,0007.26,0003.88,0003.54
2024-02-14 21:23:00,SystemResetWarning,0824.4,5.00,000.00,021.2,020.8,000.0,029.4,023.0,14.5,0000.0,0007.39,0004.11,0003.75
2024-02-14 21:24:00,SystemResetWarning,0824.5,5.00,000.00,021.2,020.8,000.0,029.4,023.0,15.3,0000.0,0008.11,0004.28,0003.88
2024-02-14 21:25:00,SystemResetWarning,0824.6,5.00,000.00,021.3,020.8,000.0,029.4,023.0,15.0,0000.0,0008.55,0004.58,0004.15
2024-02-14 21:26:00,SystemResetWarning,0824.6,5.00,000.00,021.3,020.8,000.0,029.5,023.1,14.7,0000.0,0009.09,0004.77,0004.31
2024-02-14 21:27:00,SystemResetWarning,0824.6,5.00,000.00,021.3,020.8,000.0,029.5,023.1,15.2,0000.0,0009.55,0004.90,0004.42
2024-02-14 21:28:00,SystemResetWarning,0824.7,5.00,000.00,021.3,020.8,000.0,029.5,023.1,15.2,0000.0,0009.66,0005.01,0004.52
2024-02-14 21:29:00,SystemResetWarning,0824.7,5.01,000.00,021.3,020.8,000.0,029.5,023.1,15.1,0000.0,0009.83,0005.13,0004.63
2024-02-14 21:30:00,SystemResetWarning,0824.7,5.00,000.00,021.3,020.8,000.0,029.5,023.1,15.2,0000.0,0010.07,0005.29,0004.77
2024-02-14 21:31:00,SystemResetWarning,0824.7,4.99,000.00,021.3,020.8,000.0,029.5,023.1,15.0,0000.0,0010.34,0005.50,0004.96
2024-02-14 21:32:00,SystemResetWarning,0824.7,4.98,000.00,021.3,020.8,000.0,029.6,023.1,14.6,0000.0,0010.72,0005.76,0005.18
2024-02-14 21:33:00,SystemResetWarning,0824.7,5.01,000.00,021.3,020.8,000.0,029.6,023.1,14.4,0000.0,0010.90,0005.96,0005.38
2024-02-14 21:34:00,SystemResetWarning,0824.7,5.01,000.00,021.3,020.8,000.0,029.6,023.1,14.7,0000.0,0011.06,0006.14,0005.55
2024-02-14 21:35:00,SystemResetWarning,0824.7,5.00,000.00,021.3,020.9,000.0,029.6,023.1,14.4,0000.0,0010.39,0006.22,0005.66
2024-02-14 21:36:00,SystemResetWarning,0824.7,4.99,000.00,021.3,020.9,000.0,029.6,023.1,14.5,0000.0,0010.26,0006.25,0005.68
2024-02-14 21:37:00,SystemResetWarning,0824.8,5.00,000.00,021.3,020.9,000.0,029.6,023.1,14.8,0000.0,0009.96,0006.25,0005.71
2024-02-14 21:38:00,SystemResetWarning,0824.7,5.00,000.00,021.3,020.9,000.0,029.6,023.1,14.8,0000.0,0009.53,0006.22,0005.71
2024-02-14 21:39:00,SystemResetWarning,0824.8,5.00,000.00,021.4,020.9,000.0,029.6,023.1,14.3,0000.0,0009.47,0006.23,0005.72
2024-02-14 21:40:00,SystemResetWarning,0824.8,5.01,000.00,021.4,020.9,000.0,029.6,023.1,14.3,0000.0,0009.42,0006.21,0005.70
2024-02-14 21:41:00,SystemResetWarning,0824.8,5.00,000.00,021.4,020.9,000.0,029.7,023.1,14.4,0000.0,0009.41,0006.20,0005.67
2024-02-14 21:42:00,SystemResetWarning,0824.7,5.01,000.00,021.4,020.9,000.0,029.7,023.2,14.7,0000.0,0009.34,0006.13,0005.60
2024-02-14 21:43:00,SystemResetWarning,0824.7,5.00,000.00,021.4,020.9,000.0,029.7,023.2,14.7,0000.0,0009.63,0006.00,0005.51
2024-02-14 21:44:00,SystemResetWarning,0824.7,4.99,000.00,021.4,020.9,000.0,029.7,023.2,14.7,0000.0,0009.80,0005.92,0005.43
2024-02-14 21:45:00,SystemResetWarning,0824.8,5.00,000.00,021.4,020.9,000.0,029.7,023.2,14.8,0000.0,0009.88,0005.85,0005.36
2024-02-14 21:46:00,SystemResetWarning,0824.9,4.99,000.00,021.4,020.9,000.0,029.7,023.2,15.0,0000.0,0009.96,0005.80,0005.27
2024-02-14 21:47:00,SystemResetWarning,0824.9,5.00,000.00,021.4,020.9,000.0,029.7,023.2,15.0,0000.0,0010.22,0005.71,0005.18
2024-02-14 21:48:00,SystemResetWarning,0824.9,5.01,000.00,021.4,020.9,000.0,029.7,023.2,15.4,0000.0,0010.15,0005.63,0005.09
2024-02-14 21:49:00,SystemResetWarning,0825.0,5.01,000.00,021.4,020.9,000.0,029.7,023.2,15.7,0000.0,0010.10,0005.57,0005.00
2024-02-14 21:50:00,SystemResetWarning,0824.9,4.99,000.00,021.4,020.9,000.0,029.7,023.2,15.4,0000.0,0010.41,0005.54,0004.97
2024-02-14 21:51:00,SystemResetWarning,0824.9,5.00,000.00,021.4,020.9,000.0,029.7,023.2,15.5,0000.0,0011.00,0005.51,0004.95
2024-02-14 21:52:00,SystemResetWarning,0824.9,4.99,000.00,021.4,020.9,000.0,029.8,023.2,15.7,0000.0,0010.93,0005.47,0004.94
2024-02-14 21:53:00,SystemResetWarning,0825.0,5.01,000.00,021.4,021.0,000.0,029.8,023.3,15.5,0000.0,0011.62,0005.48,0004.93
2024-02-14 21:54:00,SystemResetWarning,0825.0,5.01,000.00,021.5,021.0,000.0,029.8,023.3,15.5,0000.0,0011.73,0005.54,0004.95
2024-02-14 21:55:00,SystemResetWarning,0825.1,5.01,000.00,021.5,021.0,000.0,029.8,023.3,15.5,0000.0,0011.66,0005.56,0004.96
2024-02-14 21:56:00,SystemResetWarning,0825.0,5.00,000.00,021.5,021.0,000.0,029.8,023.3,15.6,0000.0,0011.51,0005.56,0004.97
2024-02-14 21:57:00,SystemResetWarning,0825.0,4.99,000.00,021.5,021.0,000.0,029.8,023.3,15.5,0000.0,0011.34,0005.54,0004.98
2024-02-14 21:58:00,SystemResetWarning,0825.1,4.99,000.00,021.5,021.0,000.0,029.8,023.3,15.3,0000.0,0010.85,0005.54,0005.00
2024-02-14 21:59:00,SystemResetWarning,0825.1,5.00,000.00,021.5,021.0,000.0,029.8,023.3,15.0,0000.0,0010.73,0005.53,0005.03
